Location: Shannon
(40.5500°S, 175.4167°E)
Time: 02:05:52
(UTC+00:00)

Resurs 1-4 Rocket - Visible Passes

Search period start: 08 February 2026 00:00
Search period end: 18 February 2026 00:00
Orbit: 797 x 813 km, 98.8° (Epoch: 7 February)

Date Brightness Start Highest point End Pass type
(mag) Time Alt. Az. Time Alt. Az. Time Alt. Az.
8 Feb 4.6 12:24:42 12° ESE 12:25:41 13° ESE 12:27:57 10° SSE visible
8 Feb 2.5 14:05:45 58° SSW 14:05:45 58° SSW 14:10:02 10° SSW visible
9 Feb 2.9 13:40:21 49° SE 13:40:21 49° SE 13:44:45 10° S visible
9 Feb 4.0 15:21:24 16° WSW 15:21:24 16° WSW 15:23:18 10° SW visible
10 Feb 3.5 13:14:58 32° ESE 13:14:58 32° ESE 13:19:15 10° S visible
10 Feb 3.5 14:56:00 26° WSW 14:56:00 26° WSW 14:58:57 10° SW visible
11 Feb 4.1 12:49:34 20° ESE 12:49:35 20° ESE 12:53:25 10° SSE visible
11 Feb 3.0 14:30:37 38° SW 14:30:37 38° SW 14:34:10 10° SSW visible
12 Feb 4.6 12:24:10 12° ESE 12:24:45 12° ESE 12:26:54 10° SE visible
12 Feb 2.8 14:05:13 49° SSW 14:05:13 49° SSW 14:09:05 10° SSW visible
13 Feb 3.1 13:39:49 43° SSE 13:39:49 43° SSE 13:43:48 10° S visible
13 Feb 4.1 15:20:52 15° WSW 15:20:52 15° WSW 15:22:25 10° SW visible
14 Feb 3.7 13:14:26 30° SE 13:14:26 30° SE 13:18:16 10° S visible
14 Feb 3.6 14:55:29 24° SW 14:55:29 24° SW 14:58:03 10° SSW visible
15 Feb 4.2 12:49:02 20° ESE 12:49:02 20° ESE 12:52:26 10° SSE visible
15 Feb 3.3 14:30:05 34° SW 14:30:05 34° SW 14:33:14 10° SSW visible
16 Feb 4.7 12:23:39 12° ESE 12:23:50 12° ESE 12:25:51 10° SE visible
16 Feb 3.2 14:04:42 41° SSW 14:04:42 41° SSW 14:08:09 10° SSW visible
17 Feb 3.4 13:39:18 38° SSE 13:39:18 38° SSE 13:42:51 10° S visible
17 Feb 4.2 15:20:21 14° WSW 15:20:21 14° WSW 15:21:32 10° SW visible
